sat.trackr.live / text

‹ back to catalog

STARLINK-11358 [DTC]

NORAD 62558 · 2025-006E

PAYLOAD ACTIVE UNKNOWN

§ Identity

Operator
Country
US
Launch date
2025-01-10
Launch site
AFETR
Launch vehicle
Mass (kg)
RCS (m²)

Purposes: comms

External: N2YO · Heavens-Above · Gunter

§ Orbital elements

Epoch: 2026-05-25T01:21:27.230688Z

Period
91.67 min
Inclination
42.9986°
Eccentricity
0.0001915
Mean motion
15.70834955 rev/d
Perigee alt
355.2 km
Apogee alt
357.8 km
Semi-major
6,734.6 km
B*
1.0354e-3
RAAN
39.5147°
Arg perigee
274.5740°
Mean anomaly
85.4909°
Rev number
7,861

§ Raw data

STARLINK-11358 [DTC]1 62558U 25006E   26145.05656517  .00134547  00000+0  10354-2 0  99902 62558  42.9986  39.5147 0001915 274.5740  85.4909 15.70834955 78614

JSON: /api/v1/satellites/62558 · /tle

For live sub-satellite position, see the globe view (requires WebGL).

§ Visibility from observer

Set your observer location to see the next 7 days of passes ≥ 10°. The values pass through the URL so the page stays shareable.

No JS? Fill the form by hand. The geolocation button needs JavaScript.